TimeEDT,TemperatureF,Dew PointF,Humidity,Sea Level PressureIn,VisibilityMPH,Wind Direction,Wind SpeedMPH,Gust SpeedMPH,PrecipitationIn,Events,Conditions,WindDirDegrees,DateUTC
12:15 AM,48.2,43.0,82,29.70,10.0,SSW,8.1,-,N/A,,Overcast,200,2012-10-20 04:15:00
12:35 AM,48.4,43.0,82,29.70,10.0,SSW,12.7,-,N/A,,Light Drizzle,210,2012-10-20 04:35:00
12:55 AM,48.6,42.8,80,29.70,10.0,SW,9.2,-,N/A,,Overcast,220,2012-10-20 04:55:00
1:15 AM,48.2,42.6,81,29.71,10.0,SSW,9.2,-,N/A,,Overcast,200,2012-10-20 05:15:00
1:35 AM,48.2,42.6,81,29.71,10.0,SSW,8.1,-,N/A,,Overcast,200,2012-10-20 05:35:00
1:55 AM,48.0,42.8,82,29.72,10.0,SSW,9.2,-,N/A,,Overcast,210,2012-10-20 05:55:00
2:15 AM,48.2,42.6,81,29.72,10.0,SW,8.1,-,N/A,,Light Drizzle,220,2012-10-20 06:15:00
2:35 AM,48.2,42.3,80,29.72,10.0,SW,8.1,-,N/A,,Overcast,230,2012-10-20 06:35:00
2:55 AM,47.8,41.9,80,29.72,10.0,SW,8.1,16.1,N/A,,Overcast,220,2012-10-20 06:55:00
3:15 AM,48.0,41.9,79,29.72,10.0,SW,9.2,-,N/A,,Overcast,220,2012-10-20 07:15:00
3:35 AM,47.1,41.4,80,29.72,10.0,SW,6.9,-,N/A,,Mostly Cloudy,220,2012-10-20 07:35:00
3:55 AM,46.4,41.0,81,29.72,10.0,SW,6.9,-,N/A,,Mostly Cloudy,220,2012-10-20 07:55:00
4:15 AM,46.4,41.0,81,29.73,10.0,SW,9.2,-,N/A,,Scattered Clouds,220,2012-10-20 08:15:00
4:35 AM,46.2,40.8,81,29.73,10.0,SSW,9.2,-,N/A,,Mostly Cloudy,210,2012-10-20 08:35:00
4:55 AM,46.6,41.2,81,29.73,10.0,SW,9.2,-,N/A,,Overcast,220,2012-10-20 08:55:00
5:15 AM,46.6,41.2,81,29.74,10.0,SW,8.1,-,N/A,,Overcast,220,2012-10-20 09:15:00
5:35 AM,46.9,41.5,81,29.74,10.0,SSW,10.4,-,N/A,,Overcast,210,2012-10-20 09:35:00
5:55 AM,47.3,41.5,80,29.74,10.0,SSW,11.5,-,N/A,,Overcast,210,2012-10-20 09:55:00
6:15 AM,47.5,41.5,80,29.75,10.0,SSW,11.5,-,N/A,,Overcast,210,2012-10-20 10:15:00
6:35 AM,47.3,41.5,80,29.75,10.0,SSW,10.4,-,N/A,,Overcast,210,2012-10-20 10:35:00
6:55 AM,47.3,41.7,81,29.75,10.0,SW,9.2,-,N/A,,Overcast,220,2012-10-20 10:55:00
7:15 AM,47.5,41.9,81,29.75,10.0,SSW,9.2,-,N/A,,Overcast,210,2012-10-20 11:15:00
7:35 AM,47.7,41.9,80,29.75,10.0,SSW,10.4,-,N/A,,Overcast,210,2012-10-20 11:35:00
7:55 AM,47.7,42.1,81,29.76,10.0,SSW,10.4,-,N/A,,Overcast,210,2012-10-20 11:55:00
8:15 AM,47.8,42.1,80,29.76,10.0,SSW,8.1,-,N/A,,Overcast,210,2012-10-20 12:15:00
8:35 AM,48.0,42.3,80,29.77,7.0,SW,8.1,-,N/A,Rain,Rain,220,2012-10-20 12:35:00
8:55 AM,48.0,42.6,82,29.78,5.0,SW,4.6,-,N/A,Rain,Light Rain,220,2012-10-20 12:55:00
9:15 AM,47.8,43.0,83,29.78,4.0,SW,5.8,-,N/A,Rain,Light Rain,230,2012-10-20 13:15:00
9:35 AM,47.8,43.2,84,29.79,3.0,West,5.8,-,N/A,Rain,Rain,270,2012-10-20 13:35:00
9:55 AM,47.5,43.0,84,29.79,10.0,West,6.9,-,N/A,,Overcast,260,2012-10-20 13:55:00
10:15 AM,48.6,43.5,83,29.80,10.0,WSW,6.9,-,N/A,,Overcast,250,2012-10-20 14:15:00
10:35 AM,49.8,44.1,81,29.81,10.0,WSW,9.2,-,N/A,,Overcast,250,2012-10-20 14:35:00
10:55 AM,50.2,43.9,79,29.81,10.0,WSW,8.1,17.3,N/A,,Overcast,240,2012-10-20 14:55:00
11:15 AM,50.9,43.9,77,29.81,10.0,WSW,13.8,-,N/A,,Overcast,240,2012-10-20 15:15:00
11:35 AM,51.6,43.3,73,29.82,10.0,WSW,12.7,-,N/A,,Scattered Clouds,240,2012-10-20 15:35:00
11:55 AM,54.0,43.5,68,29.81,10.0,WSW,12.7,20.7,N/A,,Mostly Cloudy,250,2012-10-20 15:55:00
12:15 PM,54.3,42.1,63,29.82,10.0,WSW,16.1,20.7,N/A,,Overcast,250,2012-10-20 16:15:00
12:35 PM,55.4,41.0,58,29.82,10.0,West,17.3,20.7,N/A,,Overcast,260,2012-10-20 16:35:00
12:55 PM,55.2,39.7,56,29.82,10.0,WSW,13.8,20.7,N/A,,Overcast,250,2012-10-20 16:55:00
1:15 PM,54.7,38.7,55,29.82,10.0,West,9.2,-,N/A,,Overcast,280,2012-10-20 17:15:00
1:35 PM,54.1,38.5,55,29.83,10.0,West,13.8,-,N/A,,Overcast,270,2012-10-20 17:35:00
1:55 PM,54.5,38.8,56,29.83,10.0,West,12.7,19.6,N/A,,Overcast,270,2012-10-20 17:55:00
2:15 PM,55.2,37.9,52,29.83,10.0,West,12.7,18.4,N/A,,Overcast,280,2012-10-20 18:15:00
2:35 PM,55.6,38.5,53,29.83,10.0,WNW,9.2,-,N/A,,Overcast,290,2012-10-20 18:35:00
2:55 PM,57.4,36.0,45,29.83,10.0,West,13.8,18.4,N/A,,Overcast,270,2012-10-20 18:55:00
3:15 PM,56.1,35.8,46,29.84,10.0,West,12.7,-,N/A,,Overcast,260,2012-10-20 19:15:00
3:35 PM,56.8,36.1,46,29.84,10.0,West,15.0,20.7,N/A,,Overcast,270,2012-10-20 19:35:00
3:55 PM,56.7,35.4,45,29.84,10.0,West,16.1,20.7,N/A,,Overcast,270,2012-10-20 19:55:00
4:15 PM,56.5,34.7,44,29.85,10.0,West,13.8,18.4,N/A,,Overcast,270,2012-10-20 20:15:00
4:35 PM,56.7,34.9,44,29.86,10.0,West,11.5,20.7,N/A,,Overcast,280,2012-10-20 20:35:00
4:55 PM,56.5,35.2,45,29.86,10.0,West,10.4,16.1,N/A,,Overcast,280,2012-10-20 20:55:00
5:15 PM,57.0,35.4,44,29.87,10.0,West,10.4,19.6,N/A,,Overcast,270,2012-10-20 21:15:00
5:35 PM,56.3,35.6,46,29.87,10.0,West,10.4,-,N/A,,Overcast,270,2012-10-20 21:35:00
5:55 PM,56.1,35.1,45,29.88,10.0,West,6.9,-,N/A,,Overcast,280,2012-10-20 21:55:00
6:15 PM,55.6,35.1,46,29.88,10.0,West,6.9,-,N/A,,Overcast,280,2012-10-20 22:15:00
6:35 PM,54.3,35.4,49,29.89,10.0,WSW,4.6,-,N/A,,Scattered Clouds,250,2012-10-20 22:35:00
6:55 PM,52.0,35.8,54,29.90,10.0,West,4.6,-,N/A,,Scattered Clouds,260,2012-10-20 22:55:00
7:15 PM,51.6,36.1,56,29.91,10.0,WSW,5.8,-,N/A,,Mostly Cloudy,240,2012-10-20 23:15:00
7:35 PM,50.9,37.2,59,29.91,10.0,WSW,4.6,-,N/A,,Overcast,240,2012-10-20 23:35:00
7:55 PM,50.4,37.0,60,29.92,10.0,SW,5.8,-,N/A,,Overcast,220,2012-10-20 23:55:00
8:15 PM,48.9,37.8,65,29.92,10.0,SW,4.6,-,N/A,,Overcast,230,2012-10-21 00:15:00
8:35 PM,48.9,40.5,73,29.93,10.0,SW,4.6,-,N/A,,Overcast,220,2012-10-21 00:35:00
8:55 PM,49.1,41.4,75,29.93,10.0,SW,4.6,-,N/A,,Overcast,230,2012-10-21 00:55:00
9:15 PM,49.1,41.9,76,29.94,10.0,SW,4.6,-,N/A,,Overcast,230,2012-10-21 01:15:00
9:35 PM,48.6,41.9,78,29.94,10.0,SW,3.5,-,N/A,,Overcast,220,2012-10-21 01:35:00
9:55 PM,48.2,41.9,79,29.95,10.0,SW,3.5,-,N/A,,Overcast,220,2012-10-21 01:55:00
10:15 PM,47.8,41.9,80,29.95,10.0,SSW,4.6,-,N/A,,Overcast,210,2012-10-21 02:15:00
10:35 PM,47.7,41.5,79,29.97,10.0,SSW,3.5,-,N/A,,Overcast,210,2012-10-21 02:35:00
10:55 PM,47.5,41.7,80,29.97,10.0,SSW,4.6,-,N/A,,Overcast,210,2012-10-21 02:55:00
11:15 PM,47.1,41.4,80,29.98,10.0,South,3.5,-,N/A,,Mostly Cloudy,190,2012-10-21 03:15:00
11:35 PM,46.0,40.5,81,29.98,10.0,South,4.6,-,N/A,,Overcast,190,2012-10-21 03:35:00
11:55 PM,45.5,40.1,81,29.98,10.0,South,5.8,-,N/A,,Mostly Cloudy,180,2012-10-21 03:55:00